Regional Weather Roundup
Issued by NWS Upton, NY

Current Version | Previous Version | Graphics & Text | Print | Product List | Glossary Off
Versions: 1 2 3 4 5 6 7 8 9 10 11 12 13 14 15 16 17 18 19 20 21 22 23 24 25 26 27 28 29 30 31 32 33 34 35 36 37 38 39 40 41 42 43 44 45 46 47 48 49 50

000
ASUS41 KOKX 270107
RWROKX

REGIONAL WEATHER ROUNDUP
NATIONAL WEATHER SERVICE NEW YORK NY
900 PM EDT THU MAR 26 2015

NOTE: "FAIR" INDICATES FEW OR NO CLOUDS BELOW 12,000 FEET WITH NO
SIGNIFICANT WEATHER AND/OR OBSTRUCTIONS TO VISIBILITY.

NYZ071-072-176-178-NJZ106-104-270200-
NEW YORK CITY METRO AREA


CITY           SKY/WX    TMP DP  RH WIND       PRES   REMARKS
CENTRAL PARK   CLOUDY    56  52  86 N7        29.66R
LAGUARDIA APRT CLOUDY    57  53  86 SW3       29.62R
KENNEDY INTL   FOG       49  47  93 S13       29.62S VSB 1/4
NEWARK/LIBERTY CLOUDY    62  58  86 W7        29.62R
BRNX BOT. GARD   N/A     52  50  93 N7        29.66R
TETERBORO      CLOUDY    54  51  90 N6        29.63R FOG
$$

NYZ177-179-078>081-270200-
LONG ISLAND NEW YORK

CITY           SKY/WX    TMP DP  RH WIND       PRES   REMARKS
FARMINGDALE    FOG       53  53 100 SW20G29   29.63S VSB 1/2
ISLIP          FOG       51  49  92 SW13      29.62S VSB 1/4
SHIRLEY        FOG       51  50  96 SW10G20   29.64F VSB 3/4
WESTHAMPTON    CLOUDY    52  50  93 SW15G24   29.65R FOG
MONTAUK POINT    N/A     50  48  93 S16G29    29.63F
$$

NYZ052-065-067-270200-
HUDSON VALLEY

CITY           SKY/WX    TMP DP  RH WIND       PRES   REMARKS
WHITE PLAINS   FOG       52  51  97 NW10      29.63R VSB 1/4
NEWBURGH       LGT RAIN  43  41  93 E15       29.68R FOG
MONTGOMERY     HVY RAIN  42  41  96 N8        29.69R FOG
POUGHKEEPSIE   LGT RAIN  43  40  89 N6        29.69R
ALBANY         LGT RAIN  39  36  89 N8        29.75S FOG     WCI  33
$$

NJZ001-105-106-008-010-013-015-019>022-104-270200-
NEW JERSEY

CITY           SKY/WX    TMP DP  RH WIND       PRES   REMARKS
NEWARK/LIBERTY CLOUDY    62  58  86 W7        29.62R
TETERBORO      CLOUDY    54  51  90 N6        29.63R FOG
CALDWELL       CLOUDY    52  48  86 NE5       29.65R
MORRISTOWN       N/A     52  52 100 CALM      29.60S FOG
SOMERVILLE     HVY RAIN  56  52  86 N13G25    29.61R FOG
SUSSEX         HVY RAIN  47  43  86 N8        29.69R FOG
ANDOVER          N/A     44  44 100 VRB3      29.67R
TRENTON        CLOUDY    62  57  83 W8        29.61R
MILLVILLE      CLOUDY    56  55  97 SW5       29.62R
ATLANTIC CITY  FOG       53  52  96 S10       29.63R VSB 1/2
WRIGHTSTOWN    MOCLDY    59  59 100 S9        29.58S
TOMS RIVER     CLOUDY    61  57  88 S8        29.61R
BELMAR         CLOUDY    61  55  82 SW8       29.61S
$$

PAZ047>061-062-071-270200-
EASTERN PENNSYLVANIA

CITY           SKY/WX    TMP DP  RH WIND       PRES   REMARKS
PHILADELPHIA   MOCLDY    61  57  87 W9        29.63R
ALLENTOWN      HVY RAIN  49  46  90 NW7       29.67S FOG
SCRANTON       CLOUDY    41  38  89 N7        29.72F
$$

CTZ002-004>006-009-010-012-RIZ004-006-007-MAZ004-011-015-270200-
SOUTHERN NEW ENGLAND
 IN CT

CITY           SKY/WX    TMP DP  RH WIND       PRES   REMARKS
BRADLEY INTL   LGT RAIN  44  42  93 N10       29.66R
HARTFORD       RAIN      45  44  97 N10       29.67R FOG
DANBURY        LGT RAIN  46  43  89 VRB6      29.67R
WTRBRY/OXFORD  FOG       52  46  82 N8        29.66R VSB 1/4
BRIDGEPORT     FOG       48  48 100 SW8       29.62S VSB 1/4
MERIDEN        LGT RAIN  54  53  97 CALM      29.63S FOG
NEW HAVEN      FOG       49  48  97 SW6       29.63S VSB 3/4
CHESTER        DRZL/FOG  54  54 100 SW8       29.64F VSB 1/4
GROTON         CLOUDY    52  52 100 SW12      29.64S FOG
WILLIMANTIC    LGT RAIN  56  54  93 SW9       29.62F FOG

 IN RI

CITY           SKY/WX    TMP DP  RH WIND       PRES   REMARKS
PROVIDENCE     TSTM      57  55  93 SW12      29.63S FOG
BLOCK ISLAND   CLOUDY    48  45  87 S24G31    29.62F
WESTERLY       CLOUDY    51  51 100 SW13G26   29.65F FOG

 IN MA

CITY           SKY/WX    TMP DP  RH WIND       PRES   REMARKS
BOSTON         LGT RAIN  48  47  96 NW9       29.65R FOG
WORCESTER      CLOUDY    43  42  97 N9        29.64R
WESTFIELD      RAIN      42  40  92 NE5       29.68R FOG
PROVINCETOWN   CLOUDY    48  45  87 SW16G22   29.66S
NANTUCKET      FOG       46  44  93 S18       29.70S VSB 1
$$

ANZ330-335-338-340-345-350-353-355-270200-
COASTAL MARINE OBSERVATIONS


STATION/POSITION TIME  SKY/WX   TEMP    WIND        PRES    VSBY  WAVE
                                AIR SEA DIR/SP/G                  HT/PER
                 (UTC)          (F)     (DEG/KT/KT) (MB)    (MI)  (FT/S)
NY HARB ENTRANCE 0050            47 38  200/ 21/ 25 1002.1          6/ 8
4S FIRE IS       0003               36                N/A           7/ 9
20S FIRE ISLAND  2350               38              1004.1          7/10
23SW MTP         0050                                 N/A           7/ 8
HUDSON CANYON    NOT AVBL
EXECUTION ROCKS  NOT AVBL
WESTERN LI SOUND NOT AVBL
CENTRAL LI SOUND NOT AVBL
EASTERN LI SOUND NOT AVBL
ROBBINS REEF     0000            60     200/  9/ 11 1001.1
$$


>>>>>>>>>>>>>>>>>>>>>>>>>>>> KEY <<<<<<<<<<<<<<<<<<<<<<<<<<<
>                                                          <
>     SKY/WX - SKY CONDITION/PRESENT WEATHER               <
>     TMP    - TEMPERATURE IN FAHRENHEIT                   <
>     DP     - DEWPOINT IN FAHRENHEIT                      <
>     RH     - RELATIVE HUMIDITY IN PERCENT                <
>     WIND   - DIRECTION AND SPEED IN MPH                  <
>     PRES   - MEAN SEA LEVEL PRESSURE IN INCHES OF HG     <
>     WCI    - WIND CHILL INDEX                            <
>     VSB    - VISIBILITY IN MILES                         <
>     HX     - HEAT INDEX                                  <
>     TC     - TEMPERATURE IN CELSIUS                      <
>     VRB    - VARIABLE WIND DIRECTION                     <
>                                                          <
>>>>>>>>>>>>>>>>>>>>>>>>>>>> KEY <<<<<<<<<<<<<<<<<<<<<<<<<<<





USA.gov is the U.S. government's official web portal to all federal, state and local government web resources and services.